Stations météo

réclame
Mon MeteoGroup
Pescara, Italie (16230): Température de l'air & dewpoint: 16.10.2017 01:00:00 - 22.10.2017 01:00:00 (CEST)Pescara, Italie (16230): Vitesse du vent: 16.10.2017 01:00:00 - 22.10.2017 01:00:00 (CEST)Pescara, Italie (16230): Direction du vent: 16.10.2017 01:00:00 - 22.10.2017 01:00:00 (CEST)Pescara, Italie (16230): reduced air pressure: 16.10.2017 01:00:00 - 22.10.2017 01:00:00 (CEST)Pescara, Italie (16230): visibility: 16.10.2017 01:00:00 - 22.10.2017 01:00:00 (CEST)Pescara, Italie (16230): Quantités de précipitations: 16.10.2017 01:00:00 - 22.10.2017 01:00:00 (CEST)
Date & Time tt [°C] td [°C] ff [km/h] ff [knt] dd ppp [hPa] vv [km] rr [mm]
22.10.2017 01:00:00 - - - - - - - -
22.10.2017 00:00:00 13,0 13,0 8 4 SSW - 2,4 -
21.10.2017 23:00:00 13,7 12,9 8 4 WSW 1020,1 4,5 0,0
21.10.2017 22:00:00 15,0 14,0 4 2 - - 4,5 -
21.10.2017 21:00:00 15,0 14,0 4 2 - - 5 -
21.10.2017 20:00:00 16,9 15,3 5 3 E 1020,1 7 -
21.10.2017 19:00:00 18,0 15,0 5 3 ENE - 9 -
21.10.2017 18:00:00 19,0 16,0 8 4 ENE - 10 -
21.10.2017 17:00:00 19,8 16,2 11 6 ENE 1020,0 10 0,0
21.10.2017 16:00:00 20,0 16,0 15 8 ENE - 10 -
21.10.2017 15:00:00 21,0 16,0 16 9 ENE - 10 -
21.10.2017 14:00:00 20,9 15,4 16 9 ENE 1020,3 10 -
21.10.2017 13:00:00 21,0 15,0 15 8 ENE - 10 -
21.10.2017 12:00:00 21,0 11,0 4 2 - - 10 -
21.10.2017 11:00:00 18,7 10,8 5 3 SSW 1021,9 10 0,0
21.10.2017 10:00:00 15,0 11,0 5 3 WSW - 10 -
21.10.2017 09:00:00 11,0 10,0 9 5 SSW - 9 -
21.10.2017 08:00:00 9,2 8,5 8 4 SSW 1021,7 6 -
21.10.2017 07:00:00 9,0 8,0 8 4 SW - 3,9 -
21.10.2017 06:00:00 9,0 8,0 11 6 SSW - 2,9 -
21.10.2017 05:00:00 9,8 9,1 5 3 WSW 1021,3 2,7 0,0
21.10.2017 04:00:00 10,0 10,0 9 5 S - 2,9 -
21.10.2017 03:00:00 10,0 10,0 8 4 SW - 2,8 -
21.10.2017 02:00:00 11,1 10,1 4 2 - 1021,9 3,8 -
21.10.2017 01:00:00 11,0 10,0 11 6 SSW - 3,2 -
21.10.2017 00:00:00 11,0 10,0 8 4 SSW - 3,4 -
20.10.2017 23:00:00 12,2 11,1 8 4 SSW 1022,0 9 0,0
20.10.2017 22:00:00 14,0 12,0 5 3 WSW - 8 -
20.10.2017 21:00:00 15,0 13,0 4 2 SSW - 9 -
20.10.2017 20:00:00 14,6 12,9 2 1 - 1021,5 9 -
20.10.2017 19:00:00 17,0 15,0 5 3 NE - 10 -
20.10.2017 18:00:00 19,0 14,0 9 5 ENE - 10 -
20.10.2017 17:00:00 19,2 13,9 11 6 ENE 1020,2 10 0,0
20.10.2017 16:00:00 20,0 13,0 11 6 ENE - 10 -
20.10.2017 15:00:00 20,0 13,0 13 7 ENE - 10 -
20.10.2017 14:00:00 20,3 12,9 9 5 ENE 1020,2 10 -
20.10.2017 13:00:00 20,0 13,0 4 2 - - 10 -
20.10.2017 12:00:00 19,0 13,0 5 3 WSW - 10 -
20.10.2017 11:00:00 17,1 12,6 9 5 SSW 1021,5 10 0,0
20.10.2017 10:00:00 14,0 11,0 8 4 SW - 8 -
20.10.2017 09:00:00 12,0 11,0 9 5 SW - 5 -
20.10.2017 08:00:00 11,8 11,3 8 4 SW 1020,2 4,0 -
20.10.2017 07:00:00 13,0 12,0 8 4 SW - 0,5 -
20.10.2017 06:00:00 12,0 11,0 9 5 SW - 4,9 -
20.10.2017 05:00:00 12,4 11,9 8 4 SSW 1019,2 3,5 0,0
20.10.2017 04:00:00 12,0 11,0 9 5 SSW - 1,6 -
20.10.2017 03:00:00 13,0 12,0 8 4 WSW - 0,1 -
20.10.2017 02:00:00 12,0 11,3 4 2 - 1019,3 2,4 -
20.10.2017 01:00:00 11,0 10,0 9 5 SSW - 2,1 -
20.10.2017 00:00:00 12,0 11,0 5 3 SW - 2,3 -
19.10.2017 23:00:00 12,3 11,5 5 3 SW 1019,0 5 0,0
19.10.2017 22:00:00 - - - - - - - -
19.10.2017 21:00:00 - - - - - - - -
19.10.2017 20:00:00 15,0 14,0 2 1 SSW 1018,7 - -
19.10.2017 19:00:00 - - - - - - - -
19.10.2017 18:00:00 18,0 15,0 8 4 NE - 10 -
19.10.2017 17:00:00 19,0 14,9 9 5 ENE 1018,1 - 0,0
19.10.2017 16:00:00 - - - - - - - -
19.10.2017 15:00:00 20,0 15,0 15 8 NE - 9 -
19.10.2017 14:00:00 20,3 15,0 13 7 ENE 1018,5 9 -
19.10.2017 13:00:00 20,0 15,0 11 6 NE - 9 -
19.10.2017 12:00:00 19,0 14,0 5 3 ENE - 10 -
19.10.2017 11:00:00 18,3 8,3 5 3 SSW 1019,5 10 0,0
19.10.2017 10:00:00 14,0 8,0 8 4 SSW - 10 -
19.10.2017 09:00:00 10,0 9,0 5 3 SW - 10 -
19.10.2017 08:00:00 7,6 6,5 9 5 SSW 1018,9 10 -
19.10.2017 07:00:00 8,0 7,0 8 4 SW - 10 -
19.10.2017 06:00:00 8,0 7,0 8 4 SSW - 9 -
19.10.2017 05:00:00 8,9 7,9 4 2 SSW 1018,6 7 0,0
19.10.2017 04:00:00 8,0 7,0 9 5 SSW - 10 -
19.10.2017 03:00:00 9,0 8,0 9 5 SW - 9 -
19.10.2017 02:00:00 9,5 8,5 9 5 SSW 1018,9 6 -
19.10.2017 01:00:00 10,0 9,0 8 4 SSW - 7 -
19.10.2017 00:00:00 11,0 9,0 8 4 SSW - 8 -
18.10.2017 23:00:00 11,5 10,4 9 5 SSW 1019,4 10 0,0
18.10.2017 22:00:00 13,0 12,0 5 3 SW - 10 -
18.10.2017 21:00:00 13,0 12,0 8 4 SW - 10 -
18.10.2017 20:00:00 15,4 14,0 2 1 - 1019,0 10 -
18.10.2017 19:00:00 18,0 15,0 5 3 NE - 10 -
18.10.2017 18:00:00 19,0 16,0 8 4 ENE - 10 -
18.10.2017 17:00:00 20,2 14,3 11 6 ENE 1018,7 10 0,0
18.10.2017 16:00:00 - - - - - - - -
18.10.2017 15:00:00 21,0 13,0 15 8 ENE - 10 -
18.10.2017 14:00:00 20,9 11,2 15 8 NE 1019,6 10 -
18.10.2017 13:00:00 21,0 12,0 13 7 NE - 10 -
18.10.2017 12:00:00 22,0 10,0 4 2 - - 10 -
18.10.2017 11:00:00 20,1 9,6 4 2 - 1020,7 10 0,0
18.10.2017 10:00:00 15,0 10,0 9 5 SSW - 10 -
18.10.2017 09:00:00 11,0 9,0 9 5 SSW - 10 -
18.10.2017 08:00:00 8,7 7,8 9 5 SW 1020,9 10 -
18.10.2017 07:00:00 8,0 7,0 11 6 SSW - 9 -
18.10.2017 06:00:00 9,0 8,0 9 5 SSW - 6 -
18.10.2017 05:00:00 8,8 8,0 9 5 SSW 1021,4 6 0,0
18.10.2017 04:00:00 10,0 9,0 5 3 SW - 4,8 -
18.10.2017 03:00:00 10,0 9,0 8 4 SSW - 7 -
18.10.2017 02:00:00 10,0 9,0 9 5 SSW 1022,4 5 -
18.10.2017 01:00:00 12,0 11,0 8 4 SW - 5 -
18.10.2017 00:00:00 11,0 10,0 9 5 SSW - 4,7 -
17.10.2017 23:00:00 12,5 11,2 5 3 SSW 1023,2 9 0,0
17.10.2017 22:00:00 14,0 12,0 5 3 SSW - 9 -
17.10.2017 21:00:00 15,0 13,0 9 5 SSW - 9 -
17.10.2017 20:00:00 15,3 13,7 2 1 - 1023,9 10 -
17.10.2017 19:00:00 18,0 16,0 4 2 NE - 10 -
17.10.2017 18:00:00 20,0 15,0 9 5 ENE - 10 -
17.10.2017 17:00:00 20,7 13,3 9 5 NE 1024,1 10 0,0
17.10.2017 16:00:00 21,0 14,0 13 7 ENE - 10 -
17.10.2017 15:00:00 21,0 14,0 13 7 NE - 10 -
17.10.2017 14:00:00 21,0 13,0 15 8 ENE 1025,1 10 -
17.10.2017 13:00:00 21,0 13,0 15 8 NE - 10 -
17.10.2017 12:00:00 21,0 11,0 9 5 NNE - 10 -
17.10.2017 11:00:00 20,0 9,8 2 1 - 1026,5 10 0,0
17.10.2017 10:00:00 16,0 10,0 5 3 SW - 10 -
17.10.2017 09:00:00 13,0 10,0 5 3 SSW - 10 -
17.10.2017 08:00:00 9,7 8,5 9 5 SSW 1026,3 10 -
17.10.2017 07:00:00 9,0 8,0 8 4 SSW - 10 -
17.10.2017 06:00:00 9,0 8,0 9 5 SSW - 10 -
17.10.2017 05:00:00 9,9 8,6 8 4 SSW 1026,2 10 0,0
17.10.2017 04:00:00 10,0 9,0 8 4 SSW - 9 -
17.10.2017 03:00:00 11,0 9,0 8 4 SSW - 10 -
17.10.2017 02:00:00 10,2 8,9 9 5 SSW 1026,9 8 -
17.10.2017 01:00:00 11,0 9,0 9 5 SSW - 8 -
17.10.2017 00:00:00 12,0 10,0 8 4 SW - 9 -
16.10.2017 23:00:00 12,2 10,5 8 4 SSW 1027,7 9 0,0
16.10.2017 22:00:00 13,0 11,0 5 3 SW - 9 -
16.10.2017 21:00:00 13,0 11,0 9 5 SW - 9 -
16.10.2017 20:00:00 15,9 14,4 4 2 SW 1027,9 - -
16.10.2017 19:00:00 - - - - - - - -
16.10.2017 18:00:00 - - - - - - - -
16.10.2017 17:00:00 21,2 13,2 11 6 NNE 1027,4 10 0,0
16.10.2017 16:00:00 23,0 13,0 13 7 NE - 10 -
16.10.2017 15:00:00 22,0 13,0 13 7 NNE - 10 -
16.10.2017 14:00:00 22,9 10,2 13 7 NNE 1027,8 10 -
16.10.2017 13:00:00 24,0 10,0 13 7 NE - 10 -
16.10.2017 12:00:00 24,0 10,0 2 1 - - 10 -
16.10.2017 11:00:00 20,8 8,6 8 4 WSW 1028,7 10 0,0
16.10.2017 10:00:00 17,0 7,0 11 6 SW - 10 -
16.10.2017 09:00:00 13,0 8,0 9 5 SW - 10 -
16.10.2017 08:00:00 9,4 7,4 9 5 SW 1028,2 10 -
16.10.2017 07:00:00 9,0 7,0 9 5 SW - 10 -
16.10.2017 06:00:00 9,0 7,0 11 6 SSW - 10 -
16.10.2017 05:00:00 9,0 7,5 8 4 SSW 1027,5 10 0,0
16.10.2017 04:00:00 10,0 9,0 8 4 SSW - 10 -
16.10.2017 03:00:00 11,0 9,0 5 3 SSW - 9 -
16.10.2017 02:00:00 10,3 8,8 11 6 SSW 1028,0 7 -
16.10.2017 01:00:00 12,0 10,0 8 4 SW - 6 -

tt = Température de l'air
td = dewpoint
ff = Vitesse du vent
dd = Direction du vent
ppp = reduced air pressure
vv = visibility
rr = Quantités de précipitations

stations d'obs. à proximité